Location: Ferchesar
(52.6477°N, 12.4298°E)
Time: 08:11:19
(UTC+01:00)

S-56A Canister/Altair - Visible Passes

Search period start: 02 December 2021 00:00
Search period end: 12 December 2021 00:00
Orbit: 633 x 2500 km, 38.9° (Epoch: 02 December)

Date Brightness Start Highest point End Pass type
(mag) Time Alt. Az. Time Alt. Az. Time Alt. Az.
09 Dec 11.4 20:56:35 10° S 20:57:00 11° S 20:57:00 11° S visible
10 Dec 11.2 20:23:41 10° S 20:26:23 14° S 20:26:23 14° S visible
11 Dec 11.0 19:50:54 10° S 19:55:46 17° SSE 19:55:46 17° SSE visible
11 Dec 11.4 21:52:09 10° SW 21:53:13 12° SW 21:53:13 12° SW visible
